Weather History for Newcastle, WY

Change the Weather History Date:

Sunday, March 23, 2014

  Actual Average (KCUT) Record (KCUT)
Temperature  
Mean Temperature 24 °F 33 °F  
Max Temperature 37 °F 43 °F 67 °F (2012)
Min Temperature 10 °F 23 °F -7 °F (1965)
Degree Days  
Heating Degree Days 42 32  
Month to date heating degree days 791  
Since 1 July heating degree days 6626  
Cooling Degree Days 0 0  
Month to date cooling degree days 0  
Year to date cooling degree days 0  
Moisture  
Dew Point 18 °F    
Average Humidity 75    
Maximum Humidity 100    
Minimum Humidity 52    
Precipitation  
Precipitation 0.00 in 0.04 in 0.26 in (1964)
Month to date precipitation 0.65  
Year to date precipitation 1.51  
Sea Level Pressure  
Sea Level Pressure 30.13 in    
Wind  
Wind Speed 8 mph (ESE)    
Max Wind Speed 23 mph    
Max Gust Speed 31 mph    
Visibility 10 miles    
Events      
T = Trace of Precipitation, MM = Missing Value Source: NWS Daily Summary

Daily Weather History Graph

Daily Weather History Graph

Search for Another Location

Airport:

Trip Planner

Search our weather history database for the weather conditions in past years. The results will help you decide how hot, cold, wet, or windy it might be!

Date:

Astronomy

Mar. 23, 2014 Rise Set
Actual Time 6:54 AM MDT 7:13 PM MDT
Civil Twilight 6:26 AM MDT 7:42 PM MDT
Nautical Twilight 5:52 AM MDT 8:16 PM MDT
Astronomical Twilight 5:17 AM MDT 8:51 PM MDT
Moon 1:42 AM MDT (3/23) 11:28 AM MDT (3/23)
Length of Visible Light 13h 16m
Length of Day
12h 18m
Waning Gibbous, 54% of the Moon is Illuminated
Mar 23
Waning Gibbous
Mar 23
Last Quarter
Mar 30
New
Apr 7
First Quarter
Apr 15
Full

Hourly Weather History & Observations

Time (MDT) Temp. Windchill Dew Point Humidity Pressure Visibility Wind Dir Wind Speed Gust Speed Precip Events Conditions
12:15 AM 12.2 °F 1.7 °F 10.4 °F 92% 30.32 in 10.0 mi SE 6.9 mph - N/A   Scattered Clouds
12:35 AM 12.2 °F 2.9 °F 10.4 °F 92% 30.31 in 10.0 mi SE 5.8 mph - N/A   Mostly Cloudy
12:55 AM 10.4 °F 0.8 °F 10.4 °F 100% 30.30 in 10.0 mi SE 5.8 mph - N/A   Overcast
1:15 AM 12.2 °F 1.7 °F 10.4 °F 92% 30.29 in 10.0 mi SE 6.9 mph - N/A   Scattered Clouds
1:35 AM 12.2 °F 1.7 °F 10.4 °F 92% 30.28 in 10.0 mi ESE 6.9 mph - N/A   Scattered Clouds
1:55 AM 10.4 °F 0.8 °F 8.6 °F 92% 30.28 in 10.0 mi ESE 5.8 mph - N/A   Clear
2:15 AM 12.2 °F 2.9 °F 10.4 °F 92% 30.27 in 10.0 mi East 5.8 mph - N/A   Clear
2:35 AM 14.0 °F 5.1 °F 12.2 °F 93% 30.26 in 10.0 mi ESE 5.8 mph - N/A   Clear
2:55 AM 14.0 °F 3.9 °F 10.4 °F 86% 30.25 in 10.0 mi ESE 6.9 mph - N/A   Clear
3:15 AM 12.2 °F 4.3 °F 8.6 °F 85% 30.24 in 10.0 mi SE 4.6 mph - N/A   Clear
3:35 AM 12.2 °F 1.7 °F 8.6 °F 85% 30.24 in 10.0 mi ESE 6.9 mph - N/A   Clear
3:55 AM 12.2 °F 1.7 °F 10.4 °F 92% 30.23 in 10.0 mi ESE 6.9 mph - N/A   Scattered Clouds
4:15 AM 15.8 °F 7.2 °F 14.0 °F 93% 30.22 in 10.0 mi ESE 5.8 mph - N/A   Mostly Cloudy
4:35 AM 17.6 °F 6.4 °F 14.0 °F 86% 30.20 in 10.0 mi ESE 9.2 mph - N/A   Mostly Cloudy
4:55 AM 17.6 °F 8.2 °F 14.0 °F 86% 30.20 in 10.0 mi ESE 6.9 mph - N/A   Overcast
5:15 AM 19.4 °F 9.5 °F 14.0 °F 80% 30.19 in 10.0 mi ESE 8.1 mph - N/A   Overcast
5:35 AM 19.4 °F 10.4 °F 14.0 °F 80% 30.18 in 10.0 mi East 6.9 mph - N/A   Mostly Cloudy
5:55 AM 17.6 °F 8.2 °F 12.2 °F 79% 30.17 in 10.0 mi ESE 6.9 mph - N/A   Scattered Clouds
6:15 AM 17.6 °F 9.3 °F 12.2 °F 79% 30.17 in 10.0 mi SE 5.8 mph - N/A   Mostly Cloudy
6:35 AM 17.6 °F 7.3 °F 12.2 °F 79% 30.16 in 10.0 mi SE 8.1 mph - N/A   Scattered Clouds
6:55 AM 15.8 °F 7.2 °F 10.4 °F 79% 30.15 in 10.0 mi SE 5.8 mph - N/A   Clear
7:15 AM 14.0 °F 6.5 °F 10.4 °F 86% 30.15 in 10.0 mi SE 4.6 mph - N/A   Clear
7:35 AM 15.8 °F 7.2 °F 12.2 °F 86% 30.15 in 10.0 mi SE 5.8 mph - N/A   Scattered Clouds
7:55 AM 17.6 °F 8.2 °F 12.2 °F 79% 30.14 in 10.0 mi SE 6.9 mph - N/A   Scattered Clouds
8:15 AM 19.4 °F 11.5 °F 14.0 °F 80% 30.13 in 10.0 mi SSE 5.8 mph - N/A   Scattered Clouds
8:35 AM 21.2 °F 11.7 °F 14.0 °F 74% 30.12 in 10.0 mi SE 8.1 mph - N/A   Clear
8:55 AM 21.2 °F 12.6 °F 14.0 °F 74% 30.12 in 10.0 mi SE 6.9 mph - N/A   Clear
9:15 AM 21.2 °F 12.6 °F 14.0 °F 74% 30.12 in 10.0 mi SE 6.9 mph - N/A   Clear
9:35 AM 23.0 °F 14.7 °F 15.8 °F 74% 30.11 in 10.0 mi SE 6.9 mph - N/A   Clear
9:55 AM 24.8 °F 15.3 °F 15.8 °F 69% 30.10 in 10.0 mi SE 9.2 mph - N/A   Scattered Clouds
10:15 AM 26.6 °F 17.5 °F 17.6 °F 69% 30.10 in 10.0 mi SE 9.2 mph - N/A   Scattered Clouds
10:35 AM 26.6 °F 18.2 °F 17.6 °F 69% 30.08 in 10.0 mi SE 8.1 mph - N/A   Clear
10:55 AM 26.6 °F 17.5 °F 17.6 °F 69% 30.07 in 10.0 mi SSE 9.2 mph - N/A   Clear
11:15 AM 26.6 °F 16.8 °F 17.6 °F 69% 30.07 in 10.0 mi SSE 10.4 mph - N/A   Clear
11:35 AM 26.6 °F 18.2 °F 19.4 °F 74% 30.06 in 10.0 mi SSE 8.1 mph - N/A   Clear
11:55 AM 28.4 °F 20.4 °F 19.4 °F 69% 30.04 in 10.0 mi SSE 8.1 mph - N/A   Clear
12:15 PM 28.4 °F 19.7 °F 19.4 °F 69% 30.03 in 10.0 mi South 9.2 mph - N/A   Clear
12:35 PM 30.2 °F 22.6 °F 21.2 °F 69% 30.02 in 10.0 mi South 8.1 mph - N/A   Clear
12:55 PM 30.2 °F 24.3 °F 21.2 °F 69% 30.02 in 10.0 mi SSE 5.8 mph - N/A   Clear
1:15 PM 30.2 °F 24.3 °F 23.0 °F 75% 30.02 in 10.0 mi South 5.8 mph - N/A   Clear
1:35 PM 30.2 °F 24.3 °F 23.0 °F 75% 30.02 in 10.0 mi South 5.8 mph - N/A   Clear
1:55 PM 30.2 °F - 23.0 °F 75% 30.02 in 10.0 mi Calm Calm - N/A   Clear
2:15 PM 32.0 °F - 23.0 °F 69% 30.01 in 10.0 mi Calm Calm - N/A   Clear
2:35 PM 32.0 °F - 23.0 °F 69% 30.00 in 10.0 mi Calm Calm - N/A   Clear
2:55 PM 32.0 °F 27.5 °F 23.0 °F 69% 30.00 in 10.0 mi NW 4.6 mph - N/A   Clear
3:15 PM 33.8 °F 30.8 °F 23.0 °F 65% 29.99 in 10.0 mi NW 3.5 mph - N/A   Clear
3:35 PM 35.6 °F 28.6 °F 23.0 °F 60% 29.99 in 10.0 mi NW 9.2 mph - N/A   Clear
3:55 PM 35.6 °F 28.0 °F 21.2 °F 56% 29.99 in 10.0 mi NW 10.4 mph - N/A   Clear
4:15 PM 37.4 °F 26.4 °F 21.2 °F 52% 30.00 in 10.0 mi NW 23.0 mph 28.8 mph N/A   Clear
4:35 PM 37.4 °F 27.2 °F 21.2 °F 52% 30.00 in 10.0 mi NW 19.6 mph 28.8 mph N/A   Clear
4:55 PM 37.4 °F 27.8 °F 21.2 °F 52% 30.02 in 10.0 mi NNW 17.3 mph 25.3 mph N/A   Clear
5:15 PM 37.4 °F 27.2 °F 23.0 °F 56% 30.03 in 10.0 mi NNW 19.6 mph 27.6 mph N/A   Clear
5:35 PM 35.6 °F 24.2 °F 23.0 °F 60% 30.04 in 10.0 mi NW 21.9 mph 31.1 mph N/A   Scattered Clouds
5:55 PM 35.6 °F 24.8 °F 23.0 °F 60% 30.04 in 10.0 mi NNW 19.6 mph 27.6 mph N/A   Clear
6:15 PM 32.0 °F 20.5 °F 23.0 °F 69% 30.06 in 10.0 mi NW 18.4 mph 26.5 mph N/A   Clear
6:35 PM 32.0 °F 20.5 °F 23.0 °F 69% 30.08 in 10.0 mi NW 18.4 mph 24.2 mph N/A   Clear
6:55 PM 32.0 °F 20.5 °F 23.0 °F 69% 30.08 in 10.0 mi NNW 18.4 mph 25.3 mph N/A   Clear
7:15 PM 32.0 °F 20.5 °F 23.0 °F 69% 30.09 in 10.0 mi NW 18.4 mph 21.9 mph N/A   Scattered Clouds
7:35 PM 32.0 °F 22.1 °F 23.0 °F 69% 30.10 in 10.0 mi NNW 13.8 mph - N/A   Clear
7:55 PM 32.0 °F 22.5 °F 23.0 °F 69% 30.10 in 10.0 mi NNW 12.7 mph - N/A   Clear
8:15 PM 30.2 °F 19.8 °F 23.0 °F 75% 30.11 in 10.0 mi NW 13.8 mph - N/A   Clear
8:35 PM 30.2 °F 19.8 °F 23.0 °F 75% 30.14 in 10.0 mi NW 13.8 mph - N/A   Clear
8:55 PM 30.2 °F 19.8 °F 23.0 °F 75% 30.14 in 10.0 mi NW 13.8 mph - N/A   Clear
9:15 PM 30.2 °F 20.8 °F 23.0 °F 75% 30.15 in 10.0 mi NW 11.5 mph - N/A   Clear
9:35 PM 28.4 °F 18.0 °F 23.0 °F 80% 30.15 in 10.0 mi NW 12.7 mph 17.3 mph N/A   Clear
9:55 PM 28.4 °F 17.5 °F 21.2 °F 74% 30.16 in 10.0 mi NW 13.8 mph - N/A   Clear
10:15 PM 28.4 °F 17.0 °F 21.2 °F 74% 30.16 in 10.0 mi NW 15.0 mph - N/A   Clear
10:35 PM 28.4 °F 18.0 °F 21.2 °F 74% 30.16 in 10.0 mi NW 12.7 mph - N/A   Clear
10:55 PM 28.4 °F 17.0 °F 19.4 °F 69% 30.16 in 10.0 mi NNW 15.0 mph 23.0 mph N/A   Clear
11:15 PM 28.4 °F 18.5 °F 17.6 °F 64% 30.17 in 10.0 mi NW 11.5 mph - N/A   Clear
11:35 PM 26.6 °F 16.2 °F 19.4 °F 74% 30.18 in 10.0 mi NW 11.5 mph - N/A   Clear
11:55 PM 26.6 °F 15.7 °F 19.4 °F 74% 30.19 in 10.0 mi NW 12.7 mph - N/A   Clear